Weather History for Jonesboro, AR

Change the Weather History Date:

Sunday, August 17, 2014

  Actual Average Record
Temperature  
Mean Temperature 86 °F 80 °F  
Max Temperature 97 °F 90 °F 107 °F (1918)
Min Temperature 74 °F 70 °F 45 °F (1897)
Degree Days  
Heating Degree Days 0 0  
Month to date heating degree days 0 0  
Since 1 June heating degree days 0 1  
Since 1 July heating degree days 0 0  
Cooling Degree Days 21 15  
Month to date cooling degree days 236 266  
Year to date cooling degree days 1204 1353  
Since 1 June cooling degree days 957 1140  
Growing Degree Days 36 (Base 50)    
Moisture  
Dew Point 73 °F    
Average Humidity 70    
Maximum Humidity 94    
Minimum Humidity 46    
Precipitation  
Precipitation 0.32 in 0.10 in 2.32 in (1966)
Month to date precipitation 0.39 1.42  
Year to date precipitation 32.50 29.99  
Snow  
Snow 0.00 in 0.00 in - ()
Month to date snowfall 0.0 0.0  
Since 1 June snowfall 0.0 0.0  
Since 1 July snowfall 0.0 0.0  
Snow Depth 0.00 in    
Sea Level Pressure  
Sea Level Pressure 29.86 in    
Wind  
Wind Speed 9 mph (SW)    
Max Wind Speed 22 mph    
Max Gust Speed 32 mph    
Visibility 10 miles    
Events Rain , Thunderstorm    
T = Trace of Precipitation, MM = Missing Value Source: NWS Daily Summary

Daily Weather History Graph

Daily Weather History Graph

Search for Another Location

Airport:

Trip Planner

Search our weather history database for the weather conditions in past years. The results will help you decide how hot, cold, wet, or windy it might be!

Date:

Astronomy

Aug. 17, 2014 Rise Set
Actual Time 6:22 AM CDT 7:49 PM CDT
Civil Twilight 5:55 AM CDT 8:16 PM CDT
Nautical Twilight 5:23 AM CDT 8:48 PM CDT
Astronomical Twilight 4:49 AM CDT 9:22 PM CDT
Moon No Moon Rise 1:53 PM CDT (8/17)
Length of Visible Light 14h 20m
Length of Day
13h 26m
Waning Gibbous, 48% of the Moon is Illuminated
Aug 17
Waning Gibbous
Aug 25
New
Sep 2
First Quarter
Sep 8
Full
Sep 15
Last Quarter

Hourly Weather History & Observations

Time (CDT) Temp. Heat Index Dew Point Humidity Pressure Visibility Wind Dir Wind Speed Gust Speed Precip Events Conditions
12:53 AM 78.1 °F - 73.0 °F 84% 29.88 in 10.0 mi South 5.8 mph - N/A   Scattered Clouds
1:53 AM 80.6 °F 84.6 °F 71.6 °F 74% 29.87 in 10.0 mi SSW 12.7 mph - N/A   Clear
2:53 AM 80.1 °F 84.2 °F 73.0 °F 79% 29.85 in 10.0 mi SSW 13.8 mph - N/A   Clear
3:53 AM 79.0 °F - 73.0 °F 82% 29.85 in 10.0 mi SW 11.5 mph 20.7 mph N/A   Clear
4:53 AM 79.0 °F - 73.0 °F 82% 29.84 in 10.0 mi SW 12.7 mph - N/A   Clear
5:53 AM 78.1 °F - 73.0 °F 84% 29.86 in 10.0 mi SW 10.4 mph - N/A   Clear
6:53 AM 78.1 °F - 73.9 °F 87% 29.88 in 10.0 mi SW 8.1 mph - N/A   Scattered Clouds
7:53 AM 80.1 °F 84.5 °F 73.9 °F 81% 29.89 in 10.0 mi WSW 10.4 mph - N/A   Clear
8:53 AM 82.0 °F 87.9 °F 73.9 °F 76% 29.88 in 10.0 mi WSW 11.5 mph - N/A   Clear
9:53 AM 86.0 °F 93.8 °F 73.9 °F 67% 29.87 in 10.0 mi West 11.5 mph 18.4 mph N/A   Clear
10:53 AM 90.0 °F 99.0 °F 73.9 °F 59% 29.88 in 10.0 mi West 12.7 mph 24.2 mph N/A   Clear
11:53 AM 91.0 °F 99.3 °F 73.0 °F 55% 29.88 in 10.0 mi West 8.1 mph 17.3 mph N/A   Scattered Clouds
12:53 PM 91.0 °F 98.2 °F 72.0 °F 53% 29.87 in 10.0 mi SSW 11.5 mph - N/A   Scattered Clouds
1:53 PM 93.9 °F 100.3 °F 70.0 °F 46% 29.86 in 10.0 mi West 10.4 mph 21.9 mph N/A   Partly Cloudy
2:53 PM 96.1 °F 105.6 °F 73.0 °F 47% 29.84 in 10.0 mi SW 13.8 mph 21.9 mph N/A   Clear
3:07 PM 95.0 °F 103.2 °F 71.6 °F 47% 29.84 in 10.0 mi SW 15.0 mph 23.0 mph N/A Thunderstorm Partly Cloudy
3:18 PM 93.2 °F 100.5 °F 71.6 °F 49% 29.85 in 10.0 mi SSW 17.3 mph 26.5 mph N/A Thunderstorm Mostly Cloudy
3:50 PM 91.4 °F 100.1 °F 73.4 °F 55% 29.82 in 10.0 mi WSW 12.7 mph - N/A   Overcast
3:53 PM 91.0 °F 100.4 °F 73.9 °F 57% 29.82 in 10.0 mi WSW 10.4 mph - N/A   Overcast
4:01 PM 82.4 °F 89.5 °F 75.2 °F 79% 29.83 in 10.0 mi Variable 6.9 mph 32.2 mph 0.00 in Rain , Thunderstorm Heavy Thunderstorms and Rain
4:53 PM 86.0 °F 96.0 °F 75.9 °F 72% 29.82 in 10.0 mi NE 5.8 mph - 0.01 in   Scattered Clouds
5:53 PM 84.9 °F 92.1 °F 73.9 °F 69% 29.83 in 10.0 mi North 4.6 mph - N/A Thunderstorm Mostly Cloudy
6:06 PM 84.2 °F 90.9 °F 73.4 °F 70% 29.84 in 10.0 mi NNW 5.8 mph - N/A Thunderstorm Partly Cloudy
6:42 PM 80.6 °F 83.9 °F 69.8 °F 70% 29.85 in 10.0 mi NW 3.5 mph - 0.00 in   Scattered Clouds
6:53 PM 80.1 °F 82.9 °F 69.1 °F 69% 29.85 in 10.0 mi Calm Calm - 0.00 in   Mostly Cloudy
7:11 PM 80.6 °F 83.9 °F 69.8 °F 70% 29.86 in 10.0 mi West 8.1 mph - 0.00 in Rain , Thunderstorm Light Thunderstorms and Rain
7:53 PM 78.1 °F - 73.9 °F 87% 29.86 in 10.0 mi Calm Calm - 0.01 in Thunderstorm Scattered Clouds
8:37 PM 75.2 °F - 73.4 °F 94% 29.90 in 10.0 mi East 8.1 mph - N/A Rain , Thunderstorm Light Thunderstorms and Rain
8:53 PM 75.9 °F - 73.9 °F 94% 29.91 in 10.0 mi SE 4.6 mph - N/A Thunderstorm Thunderstorm
9:17 PM 75.2 °F - 73.4 °F 94% 29.91 in 10.0 mi ESE 5.8 mph - N/A   Mostly Cloudy
9:53 PM 75.0 °F - 72.0 °F 90% 29.90 in 10.0 mi SSE 9.2 mph - N/A   Partly Cloudy
10:42 PM 75.2 °F - 73.4 °F 94% 29.91 in 10.0 mi South 4.6 mph - N/A Thunderstorm Thunderstorm
10:53 PM 75.9 °F - 73.0 °F 91% 29.90 in 10.0 mi SW 8.1 mph - N/A   Mostly Cloudy
11:53 PM 75.0 °F - 73.0 °F 94% 29.87 in 10.0 mi SW 5.8 mph - 0.05 in   Clear